sat.trackr.live / text

‹ back to catalog

STARLINK-37867

NORAD 69661 · 2026-143N

PAYLOAD ACTIVE UNKNOWN

§ Identity

Operator
Country
US
Launch date
2026-06-21
Launch site
AFWTR
Launch vehicle
Mass (kg)
RCS (m²)

Purposes: comms

External: N2YO · Heavens-Above · Gunter

§ Orbital elements

Epoch: 2026-09-20T01:39:55.430784Z

Period
93.90 min
Inclination
97.2833°
Eccentricity
0.0001838
Mean motion
15.33466744 rev/d
Perigee alt
464.2 km
Apogee alt
466.7 km
Semi-major
6,843.6 km
B*
4.3823e-4
RAAN
306.2206°
Arg perigee
110.1630°
Mean anomaly
249.9811°
Rev number
1,507

§ Raw data

STARLINK-378671 69661U 26143N   26263.06939156  .00014109  00000+0  43823-3 0  99992 69661  97.2833 306.2206 0001838 110.1630 249.9811 15.33466744 15073

JSON: /api/v1/satellites/69661 · /tle

For live sub-satellite position, see the globe view (requires WebGL).

§ Visibility from observer

Set your observer location to see the next 7 days of passes ≥ 10°. The values pass through the URL so the page stays shareable.

No JS? Fill the form by hand. The geolocation button needs JavaScript.